User: anonymous   Login
Location: Cabeza de los Veneras
(40.2000°N, 5.2000°W)
Time: 23:13:50
(UTC+00:00)
Language:

Sich 1 Rocket - Orbit

View from above orbital plane
View from above orbital plane
View from above satellite
View from above satellite

Ground track
Ground track

The orbit data is extracted from the following two-line orbital elements,

1 23659U 95046C   24175.29096490  .00000533  00000-0  68127-4 0  9996
2 23659  82.5303  86.3874 0026459 125.0489 357.7723 14.79317403552947
Epoch (UTC): 23 June 2024 06:58:59
Eccentricity: 0.0026459
inclination: 82.5303°
perigee height: 613 km
apogee height: 650 km
right ascension of ascending node: 86.3874°
argument of perigee: 125.0489°
revolutions per day: 14.79317403
mean anomaly at epoch: 357.7723°
orbit number at epoch: 55294

The dashed part of the orbit path shows where the satellite is in the earth's shadow,  

DLR